DELTA 1 DEB, 20051

Orbit data source: Space-Track

DELTA 1 DEB, 20051 is space debris in SSO originally from a launch on Thu, 29 Jul 1976 UTC launched from the Air Force Western Test Range (AFWTR). Debris objects in space refer to the collection of defunct objects orbiting the Earth. Examples of debris include non-operational satellites, rocket bodies, and fragments generated from explosions, collisions, or faulty payload assembly.

Loading next visibility...
Identifier
20051, 1976-077FN
Orbit
SSO
Country
Flag of USUS
Related business
Manufacturer
Unknown
Mission
Spacecraft
Bus & Motor
Unknown
Mass
Unknown
Launch date (UTC)
1976-07-29 (50 years ago)
Launch vehicle
Unknown
Launch site
Air Force Western Test Range (AFWTR)
Object type
Payload
Rocket body
Debris
Shape & HBR
Unknown shape, 0.1 m
Radar Cross Section
Small (<0.1 m²)

Expand to show TLE details & history
Last TLE update: 12 hours ago

TLE from 12 hours ago
0 DELTA 1 DEB
1 20051U 76077FN  26145.37287108  .00000008  00000-0  51367-3 0  9992
2 20051 102.5494 100.5943 0154685  70.8749  80.1036 12.14755016615081
Epoch: 2026-05-25T08:56Z
TLE epoch observation values (Epoch: 2026-05-25T08:56:56.061Z)
Latitude
26.60196°
Longitude
-90.2314°
Altitude
1,598.952 km
Speed
7.081 km/s
True Right ascension
19h 07m 51s
True Declination
26° 28' 44"
Sunlit
Object was in daylight at epoch
Visualization orbit readout
Latitude
Unknown
Longitude
Unknown
Altitude
Unknown
Speed
Unknown
Apparent Right ascension
Unknown
Apparent Declination
Unknown
Sunlit
N/A
Visualization observer readout
Local Sidereal Time
06:25:59
Azimuth
Unknown
Elevation
Unknown
Doppler factor
Unknown
Orbital elements
Apogee altitude
1,736.721 km
Perigee altitude
1,489.496 km
Semi-major axis
7,991.245 km
Eccentricity
0.01547
Inclination
102.5494°
RAAN
100.5943°
Arg. of periapsis
70.8749°
True anomaly
81.85533°
Mean anomaly
80.1036°
Eccentric anomaly
80.97892°
Mean motion
3.03824 °/min
Orbital period
118.49 mins
BSTAR
0.00051367
Loading maneuver chart data...
Computing Atmospheric mass density...
Loading historical data...
Loading historical data...
Loading historical data...
Loading historical data...
Loading historical data...
Loading historical data...
Loading historical data...

Documentation

Showing up to 5 results
|